This is the latest recevied weather packets stored in our database for station/object KC1BRV. If no packets are shown the sender has not sent any weather packets the latest 10 day(s).
| Time | Temp. | Humidity | Pressure | Rain* | Wind** | Luminosity | Snow |
|---|---|---|---|---|---|---|---|
| 1777463292 | 7.78° C | 84% | 1018.4 hPa | 0 mm | - | 121 W/m² | - |
| 1777462988 | 7.78° C | 84% | 1018.3 hPa | 0 mm | - | 107 W/m² | - |
| 1777462684 | 7.78° C | 84% | 1018.3 hPa | 0 mm | - | 93 W/m² | - |
| 1777462379 | 7.78° C | 84% | 1018.3 hPa | 0 mm | - | 79 W/m² | - |
| 1777462076 | 7.78° C | 86% | 1018.4 hPa | 0 mm | - | 78 W/m² | - |
| 1777461773 | 7.78° C | 86% | 1018.1 hPa | 0 mm | - | 80 W/m² | - |
| 1777461468 | 7.22° C | 87% | 1018.5 hPa | 0 mm | - | 75 W/m² | - |
| 1777461165 | 7.22° C | 87% | 1018.4 hPa | 0 mm | - | 59 W/m² | - |
| 1777460860 | 7.22° C | 87% | 1018.6 hPa | 0 mm | - | 48 W/m² | - |
| 1777460556 | 7.22° C | 88% | 1018.5 hPa | 0 mm | - | 41 W/m² | - |
| 1777460252 | 7.22° C | 88% | 1018.5 hPa | 0 mm | - | 41 W/m² | - |
| 1777459949 | 6.67° C | 88% | 1018.6 hPa | 0 mm | - | 36 W/m² | - |
| 1777459646 | 6.67° C | 88% | 1018.5 hPa | 0 mm | - | 28 W/m² | - |
| 1777459343 | 6.67° C | 88% | 1018.4 hPa | 0 mm | - | 25 W/m² | - |
| 1777459041 | 6.67° C | 88% | 1018.5 hPa | 0 mm | - | 22 W/m² | - |
| 1777458738 | 6.67° C | 88% | 1018.4 hPa | 0 mm | - | 19 W/m² | - |
| 1777458434 | 6.67° C | 88% | 1018.1 hPa | 0 mm | - | 16 W/m² | - |
| 1777458131 | 6.67° C | 88% | 1018.1 hPa | 0 mm | - | 15 W/m² | - |
| 1777457827 | 6.67° C | 88% | 1018 hPa | 0 mm | - | 13 W/m² | - |
| 1777457527 | 6.67° C | 89% | 1018 hPa | 0 mm | - | 10 W/m² | - |
| 1777457223 | 6.67° C | 89% | 1018.5 hPa | 0 mm | - | 8 W/m² | - |
| 1777456919 | 6.67° C | 89% | 1018.4 hPa | 0 mm | - | 6 W/m² | - |
| 1777456613 | 6.11° C | 89% | 1018.3 hPa | 0 mm | - | 4 W/m² | - |
| 1777456309 | 6.11° C | 89% | 1018.3 hPa | 0 mm | - | 2 W/m² | - |
| 1777456005 | 6.11° C | 89% | 1018.4 hPa | 0 mm | - | 1 W/m² | - |
* Rain latest hour (hover to see other rain measurements)
** Current wind speed in m/s (hover to see current wind gust speed)